Flag for India Weather past 2 weeks in Nagaur, Rajasthan, India

Now
50 °F

Haze.


Feels Like: 50 °F
Forecast: 41 / 67 °F
Wind: No wind

Location: Jaipur / Sanganer

Current Time: Jan 29, 2015 at 11:03:46 AM

Latest Report: Jan 29, 2015 at 8:30 AM


Visibility: 2 mi

Pressure: 30.12 "Hg

Humidity: 71%

Dew point: 41 °F

Location of NagaurLocation

Historic Weather in Nagaur — Graph

°F

Nagaur temperature yesterday

Maximum temperature yesterday: 64 °F (at 2:00 PM)
Minimum temperature yesterday: 43 °F (at 7:00 AM)
Average temperature yesterday: 55 °F

Past Weeks' High & Low Weather Summary

 TemperatureHumidityPressure
High72 °F (Jan 18, 2:00 PM)100% (Jan 14, 11:30 PM)30.21 "Hg (Jan 14, 11:30 PM)
Low43 °F (Jan 28, 7:00 AM)21% (Jan 28, 2:00 PM)29.98 "Hg (Jan 14, 1:00 PM)
Average58 °F77%30.10 "Hg
* Reported Jan 14 9:00 AM — Jan 29 8:30 AM, Nagaur, Weather by CustomWeather, © 2014

Note: Actual official high and low records may vary slightly from our data, if they occured in-between our weather recording intervals... More about our weather records

Advertising

Nagaur weather history for previous 24 hours

 ConditionsComfort  
Time TempWeatherWind HumidityBarometerVisibility
8:30 AM
Jan 29
50 °FHaze.No wind71%30.12 "Hg1 mi
8:00 AM45 °FHaze.3 mph81%30.12 "Hg1 mi
7:00 AM43 °FPassing clouds.No wind81%30.09 "Hg1 mi
6:00 AM45 °FPassing clouds.1 mph76%30.07 "Hg1 mi
5:00 AM46 °FPassing clouds.1 mph62%30.04 "Hg1 mi
4:00 AM48 °FPassing clouds.2 mph58%30.04 "Hg1 mi
2:00 AM48 °FPassing clouds.No wind71%30.07 "Hg1 mi
1:00 AM48 °FPassing clouds.2 mph66%30.07 "Hg1 mi
12:00 AM52 °FPassing clouds.5 mph54%30.07 "Hg1 mi
11:00 PM
Jan 28
52 °FPassing clouds.3 mph58%30.09 "Hg1 mi
10:00 PM54 °FPassing clouds.7 mph54%30.07 "Hg1 mi
9:00 PM55 °FFog.3 mph51%30.07 "Hg1 mi
7:00 PM59 °FHaze.5 mph39%30.04 "Hg2 mi
6:00 PM61 °FHaze.5 mph31%30.01 "Hg2 mi
5:00 PM63 °FHaze.7 mph30%30.04 "Hg2 mi
4:00 PM64 °FHaze.7 mph26%30.01 "Hg2 mi
3:00 PM64 °FHaze.7 mph22%30.04 "Hg2 mi
2:30 PM64 °FHaze.7 mph21%30.04 "Hg2 mi
2:00 PM64 °FHaze.6 mph21%30.07 "Hg2 mi
1:00 PM63 °FHaze.6 mph25%30.07 "Hg2 mi
12:00 PM63 °FHaze.3 mph30%30.12 "Hg2 mi
11:30 AM61 °FClear.6 mph42%30.12 "Hg1 mi
11:00 AM59 °FClear.5 mph55%30.15 "Hg1 mi
Weather by CustomWeather, © 2014

See weather overviewHow to use our weather pages